Weather History for KMOT - August, 2013

Change the Weather History Date:

Tuesday, August 20, 2013

  Actual Average Record
Temperature  
Mean Temperature 78 °F 68 °F  
Max Temperature 93 °F 81 °F 100 °F (1942)
Min Temperature 62 °F 55 °F 31 °F (1921)
Cooling Degree Days 13 5  
Month to date cooling degree days 74 113  
Year to date cooling degree days 271 371  
Since 1 June cooling degree days 261 355  
Growing Degree Days 28 (Base 50)    
Moisture  
Dew Point 56 °F    
Average Humidity 50    
Maximum Humidity 73    
Minimum Humidity 26    
Precipitation  
Precipitation 0.00 in 0.06 in 1.71 in (1980)
Month to date precipitation 1.34 1.33  
Year to date precipitation 18.75 12.73  
Sea Level Pressure  
Sea Level Pressure 29.73 in    
Wind  
Wind Speed 10 mph (WSW)    
Max Wind Speed 22 mph    
Max Gust Speed 30 mph    
Visibility 10 miles    
Events      
T = Trace of Precipitation, MM = Missing Value Source: NWS Daily Summary

Daily Weather History Graph

Daily Weather History Graph

Search for Another Location

Airport or City:

Trip Planner

Search our weather history database for the weather conditions in past years. The results will help you decide how hot, cold, wet, or windy it might be!

Date:

Astronomy

Aug. 20, 2013 Rise Set
Actual Time 6:46 AM CDT 8:49 PM CDT
Civil Twilight 6:12 AM CDT 9:22 PM CDT
Nautical Twilight 5:31 AM CDT 10:04 PM CDT
Astronomical Twilight 4:44 AM CDT 10:50 PM CDT
Moon 8:16 PM CDT (8/20) 6:21 AM CDT (8/20)
Length of Visible Light 15h 09m
Length of Day
14h 02m
Full, 100% of the Moon is Illuminated
Aug 20
Full
Aug 20
Full
Aug 28
Last Quarter
Sep 5
New
Sep 12
First Quarter

Hourly Weather History & Observations

Time (CDT) Temp. Heat Index Dew Point Humidity Pressure Visibility Wind Dir Wind Speed Gust Speed Precip Events Conditions
12:54 AM 66.9 °F - 57.9 °F 73% 29.73 in 10.0 mi SW 8.1 mph - N/A   Clear
1:54 AM 66.0 °F - 57.0 °F 73% 29.73 in 10.0 mi SSW 3.5 mph - N/A   Clear
2:54 AM 66.0 °F - 55.0 °F 68% 29.73 in 10.0 mi SW 5.8 mph - N/A   Clear
3:54 AM 64.9 °F - 55.0 °F 70% 29.73 in 10.0 mi SW 9.2 mph - N/A   Clear
4:54 AM 64.0 °F - 55.9 °F 75% 29.73 in 10.0 mi SSW 8.1 mph - N/A   Clear
5:54 AM 64.9 °F - 55.0 °F 70% 29.73 in 10.0 mi SW 9.2 mph - N/A   Clear
6:54 AM 66.0 °F - 54.0 °F 65% 29.72 in 10.0 mi South 4.6 mph - N/A   Clear
7:54 AM 68.0 °F - 55.9 °F 65% 29.73 in 10.0 mi Calm Calm - N/A   Clear
8:54 AM 73.0 °F - 57.9 °F 59% 29.72 in 10.0 mi Calm Calm - N/A   Clear
9:54 AM 80.1 °F 80.9 °F 60.1 °F 50% 29.71 in 10.0 mi SE 4.6 mph - N/A   Clear
10:54 AM 84.9 °F 84.8 °F 60.1 °F 43% 29.71 in 10.0 mi South 6.9 mph - N/A   Clear
11:54 AM 88.0 °F 87.6 °F 60.1 °F 39% 29.70 in 10.0 mi SSE 8.1 mph - N/A   Clear
12:54 PM 91.0 °F 90.5 °F 60.1 °F 35% 29.69 in 10.0 mi SSW 11.5 mph 23.0 mph N/A   Clear
1:54 PM 91.0 °F 89.7 °F 57.0 °F 32% 29.69 in 10.0 mi SW 15.0 mph - N/A   Clear
2:54 PM 91.9 °F 90.0 °F 55.0 °F 29% 29.70 in 10.0 mi West 17.3 mph - N/A   Clear
3:54 PM 91.9 °F 89.5 °F 53.1 °F 27% 29.71 in 10.0 mi WSW 17.3 mph - N/A   Clear
4:54 PM 91.9 °F - 52.0 °F 26% 29.70 in 10.0 mi WSW 17.3 mph - N/A   Clear
5:54 PM 91.0 °F - 51.1 °F 25% 29.71 in 10.0 mi West 17.3 mph 24.2 mph N/A   Clear
6:54 PM 87.1 °F 84.9 °F 53.1 °F 31% 29.72 in 10.0 mi West 12.7 mph - N/A   Clear
7:54 PM 82.9 °F 81.8 °F 53.1 °F 36% 29.73 in 10.0 mi West 11.5 mph - N/A   Clear
8:54 PM 79.0 °F - 57.0 °F 47% 29.77 in 10.0 mi West 13.8 mph - N/A   Clear
9:54 PM 73.0 °F - 59.0 °F 61% 29.81 in 10.0 mi North 12.7 mph - N/A   Clear
10:54 PM 70.0 °F - 55.9 °F 61% 29.84 in 10.0 mi NNW 10.4 mph - N/A   Clear
11:54 PM 66.0 °F - 57.9 °F 75% 29.87 in 10.0 mi NW 9.2 mph - N/A   Clear